STARLINK-1345 (45585 NORAD) Tracking and Keplerian Element Data

This shows tracking and keplerian element data for the satellite.

Feedback or suggestion? Click here.




ElementValue
Catalog45585
NameSTARLINK-1345
Epoch Orbit619
Epoch Day148.75001157
Epoch Year2020
RAAN227.0421
Inclination52.9981
Eccentricity0.0001007
Argument of Perigee85.4728
Mean Anonmoly265.0359
Mean Motion15.62738602
Decay Rate4.053E-05
L11 45585U 20025BG 20148.75001157 .00004053 00000-0 50097-4 0 9994
L22 45585 52.9981 227.0421 0001007 85.4728 265.0359 15.62738602 6199

Live tracking and technical data element details for STARLINK-1345 (NORAD 45585). STARLINK-1345 can be tracked NOW for your location showing map with azimuth and elevation plus other details from your city location.

Track the satellite on the map from your city or location and see movement details for azimuth, elevation, latitude, longitude, range, height, and movement on the map or in text.







IsCatalogInMostPopularTable: catalog: 45585, numindb: 16
Update: records affected: 1



GetName: 45585 STARLINK-1345

Hit Count: updated at: Sat, 30 May 2020 13:49:17 GMT